sat.trackr.live / text

‹ back to catalog

KOSAR

NORAD 61769 · 2024-199AL

PAYLOAD ACTIVE UNKNOWN

§ Identity

Operator
Country
IRAN
Launch date
2024-11-04
Launch site
VOSTO
Launch vehicle
Mass (kg)
RCS (m²)

External: N2YO · Heavens-Above · Gunter

§ Orbital elements

Epoch: 2026-05-25T04:52:19.219872Z

Period
92.76 min
Inclination
97.2977°
Eccentricity
0.0005087
Mean motion
15.52413265 rev/d
Perigee alt
406.2 km
Apogee alt
413.1 km
Semi-major
6,787.8 km
B*
5.1274e-4
RAAN
20.8179°
Arg perigee
34.9929°
Mean anomaly
325.1657°
Rev number
13,085

§ Raw data

KOSAR1 61769U 24199AL  26145.20300023  .00031300  00000+0  51274-3 0  99902 61769  97.2977  20.8179 0005087  34.9929 325.1657 15.52413265130855

JSON: /api/v1/satellites/61769 · /tle

For live sub-satellite position, see the globe view (requires WebGL).

§ Visibility from observer

Set your observer location to see the next 7 days of passes ≥ 10°. The values pass through the URL so the page stays shareable.

No JS? Fill the form by hand. The geolocation button needs JavaScript.

§ Radio — SatNOGS DB

ModeDescriptionDownlinkUplink
FSK Mode U - FSK9k6 - Transmitter 436.750 MHz
FSK Mode U - Transmitter 2 436.740 MHz
FM Mode X - Transmitter 8.200 GHz

3 transmitters · refreshed weekly from db.satnogs.org